GFSNE_850_dewp_204.txt.gz
Dewpoint
6 6 6 5 5 4 3 3 2 0 0 -0 -0 -1 -2 -3 -4 -5 -6 -7 -9 -14 -22 -27 -29 -31 -32 -31 -27 -24 -23 -23 -23 -23 -19 -7 -3 -4
6 6 6 6 5 4 4 1 -2 -4 -3 -3 -2 -1 -2 -2 -4 -4 -6 -7 -11 -21 -26 -29 -31 -31 -30 -28 -25 -23 -23 -25 -26 -25 -23 -13 -9 -7
6 6 6 6 6 5 3 -0 -1 -1 -0 -2 -3 -4 -4 -4 -4 -5 -7 -10 -20 -25 -29 -29 -29 -28 -27 -26 -25 -26 -25 -26 -28 -26 -23 -23 -23 -15
6 6 6 6 5 3 2 -0 1 2 1 -2 -4 -5 -5 -5 -6 -8 -12 -22 -26 -28 -28 -27 -26 -25 -25 -26 -26 -27 -26 -27 -25 -25 -24 -23 -21 -8
6 5 5 5 5 4 3 2 2 0 -2 -5 -5 -6 -7 -8 -10 -16 -23 -27 -26 -26 -25 -24 -24 -24 -25 -26 -25 -25 -24 -23 -22 -23 -23 -18 -8 -6
5 5 4 4 3 3 1 1 -3 -6 -6 -5 -7 -11 -13 -15 -21 -24 -25 -25 -24 -24 -24 -24 -25 -26 -25 -24 -23 -23 -23 -21 -22 -22 -17 -11 -10 -9
4 4 3 2 2 0 -5 -6 -6 -5 -5 -7 -17 -19 -20 -23 -24 -23 -24 -23 -23 -24 -24 -24 -25 -25 -22 -22 -22 -22 -20 -20 -20 -19 -12 -8 -8 -7
3 1 1 -1 -6 -7 -7 -8 -11 -16 -21 -24 -23 -23 -22 -23 -23 -22 -23 -23 -23 -22 -24 -24 -25 -24 -23 -23 -22 -21 -21 -19 -19 -18 -10 -8 -8 -8
1 -1 -6 -10 -15 -18 -21 -22 -23 -23 -22 -21 -20 -21 -23 -22 -22 -21 -21 -22 -23 -23 -24 -25 -24 -24 -24 -22 -21 -20 -19 -18 -18 -16 -17 -18 -11 -8
-6 -6 -6 -14 -21 -20 -21 -20 -19 -19 -20 -20 -20 -20 -20 -20 -21 -21 -22 -23 -23 -23 -23 -24 -24 -25 -24 -22 -21 -20 -18 -19 -19 -19 -18 -13 -9 -9
-4 -12 -20 -22 -22 -21 -19 -18 -19 -19 -19 -18 -18 -19 -19 -20 -21 -22 -23 -23 -23 -22 -22 -20 -20 -22 -24 -22 -20 -19 -18 -19 -19 -19 -18 -17 -14 -10
-18 -20 -21 -20 -18 -18 -18 -18 -17 -16 -16 -16 -17 -18 -19 -20 -21 -22 -22 -22 -22 -21 -19 -18 -20 -19 -20 -22 -20 -19 -19 -19 -18 -18 -18 -19 -18 -16
-20 -19 -18 -17 -17 -17 -17 -16 -15 -11 -11 -13 -15 -17 -18 -19 -19 -20 -21 -21 -21 -20 -18 -17 -18 -18 -16 -17 -21 -19 -18 -18 -18 -18 -18 -19 -19 -14
-19 -18 -17 -16 -15 -15 -13 -6 -7 -12 -14 -14 -15 -16 -16 -17 -18 -19 -20 -21 -21 -20 -17 -15 -16 -16 -16 -16 -16 -19 -18 -18 -17 -17 -17 -17 -17 -17
-17 -13 -11 -16 -15 -8 -5 -12 -13 -13 -14 -14 -15 -17 -16 -15 -15 -17 -18 -19 -21 -20 -18 -15 -15 -15 -15 -15 -15 -18 -17 -17 -17 -15 -14 -15 -16 -16
-6 -6 -8 -9 -7 -11 -14 -14 -14 -13 -12 -13 -14 -16 -16 -15 -14 -14 -14 -16 -18 -20 -19 -16 -14 -13 -14 -15 -16 -17 -16 -13 -15 -15 -15 -15 -16 -17
-11 -11 -10 -9 -13 -16 -16 -16 -15 -14 -12 -12 -13 -15 -15 -15 -15 -13 -13 -14 -16 -17 -19 -18 -14 -13 -13 -14 -15 -15 -14 -14 -14 -14 -13 -14 -15 -16
-12 -13 -13 -16 -17 -17 -18 -17 -16 -14 -12 -11 -11 -12 -13 -13 -14 -14 -13 -12 -14 -15 -17 -18 -15 -13 -13 -14 -15 -14 -14 -13 -13 -13 -13 -14 -16 -17
-15 -15 -16 -17 -17 -17 -17 -17 -17 -16 -15 -13 -12 -11 -11 -11 -11 -13 -13 -12 -12 -14 -16 -16 -13 -11 -13 -13 -15 -14 -12 -12 -13 -14 -14 -15 -14 -16
-15 -15 -16 -16 -17 -17 -17 -18 -17 -17 -18 -17 -16 -16 -15 -14 -14 -13 -13 -13 -12 -13 -16 -14 -12 -12 -13 -13 -13 -13 -13 -14 -14 -15 -15 -14 -14 -14
-16 -16 -16 -16 -16 -16 -17 -17 -18 -18 -17 -17 -16 -12 -9 -8 -14 -14 -13 -12 -11 -12 -13 -12 -12 -13 -13 -13 -13 -14 -15 -15 -14 -13 -13 -12 -13 -12
-17 -17 -16 -16 -16 -17 -17 -18 -18 -18 -17 -16 -14 -10 -7 -12 -13 -12 -11 -10 -11 -12 -12 -12 -13 -13 -13 -13 -13 -14 -15 -15 -15 -14 -14 -13 -12 -11
-18 -18 -18 -18 -18 -17 -17 -17 -18 -17 -17 -15 -14 -7 -10 -12 -11 -10 -11 -11 -12 -13 -13 -13 -13 -13 -13 -13 -13 -13 -14 -14 -14 -14 -14 -13 -13 -13

GFSNE_850_dewp_210.txt.gz
Dewpoint
4 5 5 6 6 6 6 6 6 4 4 4 4 4 4 3 3 1 -1 -2 -4 -5 -6 -7 -7 -9 -16 -24 -28 -29 -29 -30 -27 -25 -25 -24 -21 -18
5 4 5 5 6 6 6 6 4 5 5 4 4 3 3 2 1 -0 -2 -4 -5 -6 -6 -7 -9 -16 -25 -29 -29 -29 -28 -27 -26 -26 -27 -27 -27 -18
5 4 5 4 5 6 6 6 5 6 4 2 2 2 1 0 -0 -1 -3 -3 -4 -5 -6 -8 -15 -24 -28 -28 -26 -26 -26 -26 -26 -27 -27 -26 -26 -21
5 5 4 5 5 5 5 6 5 4 3 -2 -1 -0 -1 -1 -2 -2 -3 -3 -4 -5 -7 -13 -24 -27 -26 -24 -24 -25 -26 -26 -26 -25 -25 -25 -25 -19
3 5 5 4 5 5 5 4 5 4 4 3 1 -1 -2 -3 -3 -3 -4 -4 -5 -8 -15 -25 -25 -24 -23 -24 -24 -25 -26 -25 -25 -24 -24 -25 -24 -18
5 5 5 5 5 5 5 5 4 4 3 0 1 0 -2 -3 -4 -4 -5 -6 -11 -21 -24 -23 -23 -23 -24 -25 -25 -25 -24 -24 -25 -24 -24 -22 -20 -17
5 3 5 5 5 5 5 3 3 3 2 0 -1 -1 -4 -4 -5 -6 -8 -18 -23 -23 -23 -23 -22 -23 -24 -24 -24 -24 -24 -24 -24 -22 -21 -21 -22 -20
4 3 4 4 5 4 4 4 3 2 1 1 1 -3 -5 -5 -10 -15 -21 -22 -21 -22 -22 -23 -24 -24 -24 -23 -23 -24 -24 -23 -21 -20 -20 -21 -21 -21
3 3 4 3 3 3 2 2 1 -2 -5 -5 -6 -6 -11 -19 -21 -22 -22 -22 -22 -23 -23 -24 -24 -23 -24 -24 -24 -24 -23 -20 -19 -20 -20 -20 -20 -20
3 3 3 2 2 -1 -5 -6 -6 -8 -12 -16 -17 -21 -21 -21 -21 -22 -22 -23 -22 -22 -22 -22 -24 -25 -25 -24 -24 -24 -20 -20 -21 -19 -19 -19 -19 -19
2 2 1 -1 -11 -13 -14 -16 -21 -21 -20 -20 -20 -19 -20 -20 -17 -13 -17 -20 -21 -21 -21 -22 -23 -25 -26 -25 -23 -21 -19 -20 -20 -20 -18 -18 -18 -18
-4 -8 -12 -11 -16 -19 -20 -20 -19 -19 -17 -16 -15 -15 -12 -8 -16 -19 -18 -18 -19 -19 -20 -19 -21 -21 -22 -23 -21 -20 -18 -18 -19 -19 -19 -18 -18 -17
-5 -8 -16 -20 -19 -19 -19 -18 -15 -10 -7 -10 -9 -7 -13 -16 -16 -16 -16 -16 -16 -16 -17 -17 -18 -19 -19 -19 -22 -22 -22 -20 -18 -18 -19 -18 -17 -15
-19 -20 -19 -18 -18 -17 -13 -8 -7 -12 -11 -9 -12 -14 -15 -15 -15 -15 -15 -15 -15 -14 -15 -15 -16 -16 -17 -16 -18 -20 -21 -20 -18 -17 -19 -17 -17 -15
-18 -17 -17 -17 -10 -6 -5 -11 -7 -4 -8 -12 -13 -15 -14 -14 -14 -14 -14 -15 -15 -14 -14 -14 -14 -14 -15 -16 -16 -18 -18 -20 -16 -16 -17 -17 -16 -16
-17 -16 -13 -6 -6 -11 -7 -6 -9 -13 -13 -12 -13 -13 -13 -12 -12 -11 -11 -11 -11 -12 -13 -13 -13 -12 -13 -14 -15 -17 -18 -14 -16 -17 -17 -16 -16 -15
-15 -13 -8 -6 -7 -7 -8 -11 -15 -15 -13 -13 -12 -12 -11 -12 -12 -14 -12 -9 -10 -13 -15 -14 -13 -12 -12 -13 -15 -17 -16 -15 -15 -17 -15 -15 -16 -17
-10 -8 -7 -6 -6 -8 -15 -17 -16 -15 -14 -14 -14 -14 -14 -15 -15 -15 -10 -8 -8 -12 -15 -14 -14 -13 -12 -14 -15 -16 -14 -15 -16 -14 -14 -14 -17 -17
-6 -4 -5 -10 -14 -16 -16 -16 -15 -15 -15 -15 -15 -16 -17 -17 -17 -15 -10 -8 -8 -9 -13 -13 -12 -11 -12 -14 -15 -14 -13 -14 -14 -14 -15 -15 -15 -16
-11 -13 -14 -15 -16 -16 -16 -15 -15 -15 -15 -15 -16 -17 -17 -16 -16 -15 -13 -10 -8 -9 -11 -11 -11 -11 -12 -13 -13 -14 -15 -14 -15 -15 -15 -14 -15 -15
-14 -14 -14 -14 -15 -15 -15 -14 -14 -14 -15 -15 -16 -16 -16 -15 -16 -14 -10 -9 -8 -9 -10 -11 -11 -12 -13 -13 -13 -14 -15 -15 -15 -14 -14 -14 -14 -13
-15 -15 -15 -15 -16 -16 -16 -17 -17 -16 -16 -15 -16 -16 -15 -14 -14 -9 -8 -8 -8 -9 -10 -11 -12 -13 -13 -13 -14 -14 -15 -15 -15 -14 -14 -13 -12 -12
-16 -16 -16 -16 -16 -17 -17 -17 -16 -16 -16 -16 -16 -14 -10 -11 -8 -10 -9 -9 -10 -11 -11 -12 -13 -13 -14 -14 -14 -14 -13 -14 -14 -14 -15 -13 -13 -13

GFSNE_850_dewp_213.txt.gz
Dewpoint
6 5 5 4 4 4 4 6 6 5 5 5 6 6 6 5 5 5 4 3 2 -0 -4 -6 -7 -8 -7 -9 -14 -21 -26 -27 -25 -26 -20 -20 -14 -9
5 5 6 5 4 4 5 5 6 4 5 5 5 5 4 5 4 4 3 1 -0 -2 -4 -5 -6 -7 -7 -11 -21 -27 -28 -28 -26 -24 -23 -20 -20 -20
6 6 6 5 4 4 4 4 5 6 6 5 5 4 4 4 4 3 1 0 -1 -3 -4 -5 -6 -7 -8 -18 -26 -28 -26 -25 -23 -24 -25 -25 -25 -20
6 6 6 6 6 5 5 5 5 5 5 5 5 4 4 3 2 0 -0 -1 -2 -3 -4 -4 -5 -7 -17 -26 -26 -24 -24 -25 -25 -25 -25 -25 -25 -23
6 6 6 5 5 5 5 5 5 5 5 5 4 2 2 1 -0 -1 -2 -2 -3 -3 -4 -5 -9 -21 -25 -24 -23 -24 -24 -25 -25 -25 -25 -25 -25 -24
5 6 6 4 5 5 5 5 5 4 4 4 3 3 2 0 -1 -2 -3 -4 -4 -5 -8 -16 -23 -22 -22 -23 -24 -24 -25 -24 -24 -25 -25 -25 -23 -22
5 5 5 5 4 5 4 5 5 4 3 3 2 2 2 0 -2 -3 -4 -5 -6 -11 -21 -22 -22 -22 -22 -24 -24 -24 -24 -24 -25 -25 -25 -22 -21 -21
4 4 3 4 4 4 4 4 4 4 3 2 2 1 1 1 -3 -4 -6 -8 -20 -22 -22 -22 -23 -24 -24 -23 -23 -23 -24 -25 -25 -24 -21 -20 -20 -20
4 2 3 3 3 3 4 2 3 2 2 2 1 1 -1 -4 -5 -9 -18 -22 -22 -22 -23 -23 -23 -22 -23 -24 -25 -25 -25 -24 -23 -21 -20 -20 -19 -19
3 4 3 3 3 3 3 2 2 1 -0 -4 -6 -6 -10 -18 -21 -21 -21 -22 -21 -20 -20 -20 -22 -24 -25 -25 -26 -25 -24 -23 -20 -20 -21 -20 -20 -19
3 2 2 3 2 0 -2 -4 -5 -7 -12 -17 -20 -21 -21 -21 -21 -15 -13 -15 -19 -20 -19 -20 -20 -20 -20 -22 -25 -24 -22 -20 -20 -19 -19 -19 -18 -20
1 -1 -8 -13 -15 -15 -14 -15 -20 -21 -20 -19 -19 -18 -12 -8 -11 -17 -18 -18 -17 -17 -18 -16 -16 -16 -17 -18 -22 -19 -21 -20 -20 -19 -18 -17 -17 -19
-1 -6 -12 -18 -19 -19 -19 -20 -18 -16 -13 -11 -10 -6 -10 -15 -16 -15 -15 -15 -15 -15 -15 -15 -15 -15 -15 -15 -15 -15 -15 -16 -17 -20 -21 -18 -17 -17
-10 -17 -19 -19 -19 -18 -16 -11 -8 -10 -8 -7 -10 -12 -13 -14 -14 -14 -14 -14 -14 -14 -14 -14 -14 -14 -14 -14 -14 -14 -14 -15 -16 -18 -20 -16 -16 -17
-20 -19 -18 -17 -14 -10 -9 -11 -8 -5 -7 -11 -12 -13 -14 -14 -13 -13 -12 -12 -11 -11 -12 -12 -13 -13 -13 -13 -13 -14 -14 -14 -16 -18 -17 -16 -16 -18
-17 -17 -13 -7 -6 -8 -10 -5 -6 -10 -12 -12 -13 -14 -13 -12 -12 -11 -12 -12 -10 -10 -10 -12 -13 -14 -14 -13 -12 -14 -13 -14 -17 -17 -15 -16 -17 -16
-16 -8 -5 -7 -9 -6 -7 -9 -12 -14 -13 -13 -12 -12 -12 -11 -11 -13 -15 -14 -10 -9 -9 -10 -12 -13 -13 -13 -13 -14 -14 -16 -17 -15 -16 -16 -16 -16
-13 -8 -6 -8 -7 -7 -9 -13 -15 -15 -14 -14 -13 -13 -13 -15 -16 -17 -16 -16 -12 -10 -10 -9 -9 -11 -12 -14 -14 -14 -15 -15 -14 -15 -14 -15 -16 -17
-10 -4 -2 -3 -6 -12 -15 -16 -16 -15 -15 -15 -15 -15 -15 -16 -16 -17 -16 -15 -14 -13 -10 -9 -8 -10 -11 -12 -13 -14 -15 -14 -14 -15 -15 -15 -15 -16
-7 -7 -11 -14 -15 -15 -16 -16 -15 -15 -15 -15 -15 -15 -15 -15 -15 -16 -15 -14 -14 -11 -8 -9 -9 -10 -11 -11 -12 -14 -14 -14 -15 -15 -15 -14 -14 -15
-14 -14 -14 -14 -14 -14 -14 -14 -14 -14 -14 -13 -14 -14 -14 -14 -15 -15 -14 -13 -11 -8 -9 -9 -10 -11 -11 -12 -13 -14 -15 -15 -14 -14 -14 -13 -13 -13
-15 -15 -15 -15 -15 -16 -16 -16 -16 -16 -16 -15 -14 -14 -14 -13 -14 -13 -10 -9 -8 -9 -9 -10 -11 -11 -12 -13 -13 -14 -15 -15 -15 -14 -14 -13 -12 -12
-15 -15 -14 -14 -15 -15 -16 -16 -16 -14 -12 -7 -9 -11 -9 -7 -8 -10 -9 -10 -9 -10 -11 -11 -12 -12 -13 -14 -13 -13 -13 -14 -14 -14 -15 -13 -13 -13

GFSNE_850_dewp_219.txt.gz
Dewpoint
4 3 3 5 5 6 6 6 6 6 5 5 4 3 5 6 5 6 6 6 5 6 5 4 3 3 2 1 -0 -5 -9 -8 -8 -11 -16 -18 -13 -10
4 4 4 4 5 5 6 6 6 6 6 5 4 4 5 5 5 6 5 5 4 4 4 4 3 2 2 -0 -5 -6 -6 -7 -9 -15 -24 -15 -10 -6
3 4 3 3 4 4 5 6 6 6 6 6 5 4 4 4 4 5 5 5 4 4 3 3 2 2 -2 -4 -4 -6 -6 -7 -13 -24 -26 -24 -16 -7
3 2 2 3 3 4 4 5 6 5 6 5 5 5 4 4 4 4 4 4 3 3 3 3 2 -1 -2 -3 -4 -5 -6 -10 -23 -25 -24 -24 -22 -23
2 3 3 3 3 4 4 5 6 6 5 4 5 4 4 4 4 4 4 3 3 3 2 1 -0 -2 -3 -3 -4 -6 -11 -23 -24 -23 -24 -25 -24 -24
3 3 3 3 3 4 4 5 5 5 5 5 5 5 4 4 4 3 3 2 2 2 0 -1 -2 -3 -4 -5 -11 -21 -23 -23 -23 -24 -24 -23 -23 -24
3 3 3 3 4 4 5 4 4 4 3 3 4 4 4 4 3 3 1 1 0 0 -0 -1 -4 -5 -9 -20 -22 -22 -22 -23 -24 -23 -23 -23 -24 -25
4 4 4 4 4 4 4 5 5 4 4 4 4 4 4 3 3 1 0 -0 -1 -1 -3 -5 -7 -17 -21 -22 -22 -23 -23 -23 -22 -23 -24 -23 -24 -23
4 3 4 4 3 3 4 4 4 4 3 3 3 3 2 2 1 0 -0 -0 -0 -2 -20 -16 -21 -22 -22 -21 -20 -22 -24 -24 -24 -24 -23 -22 -22 -21
2 3 3 3 2 3 3 3 2 2 2 2 2 1 1 0 0 0 -1 -3 -6 -15 -22 -19 -17 -19 -20 -19 -18 -18 -19 -22 -23 -22 -22 -21 -20 -19
2 2 2 2 1 1 2 1 0 0 0 0 0 -0 -0 -1 -2 -6 -11 -18 -20 -17 -17 -16 -17 -14 -13 -13 -13 -15 -17 -14 -15 -15 -15 -16 -15 -15
2 1 -0 -3 -4 -1 -0 1 0 -2 -4 -5 -6 -10 -14 -18 -20 -18 -16 -16 -16 -15 -15 -14 -13 -13 -13 -13 -13 -12 -13 -13 -14 -14 -14 -14 -14 -15
-2 -11 -17 -17 -17 -16 -13 -12 -17 -18 -19 -20 -20 -16 -14 -11 -12 -14 -15 -15 -14 -13 -13 -13 -13 -13 -13 -13 -13 -12 -13 -14 -15 -15 -14 -14 -15 -15
-16 -18 -19 -19 -19 -19 -17 -16 -16 -16 -13 -8 -8 -11 -13 -14 -14 -14 -14 -14 -13 -13 -13 -12 -12 -12 -11 -11 -12 -12 -11 -12 -13 -14 -14 -15 -15 -15
-18 -18 -17 -13 -10 -10 -10 -10 -8 -8 -9 -12 -12 -11 -12 -13 -14 -14 -13 -13 -13 -13 -12 -11 -10 -10 -10 -10 -10 -11 -10 -10 -10 -11 -12 -14 -15 -16
-16 -11 -8 -9 -11 -8 -6 -6 -8 -10 -12 -12 -12 -13 -14 -14 -13 -12 -12 -12 -13 -13 -14 -14 -12 -10 -11 -11 -10 -10 -10 -11 -12 -12 -14 -15 -16 -16
-6 -7 -9 -9 -7 -7 -8 -10 -11 -13 -14 -14 -14 -13 -13 -13 -13 -13 -13 -13 -14 -15 -15 -15 -14 -14 -13 -12 -10 -10 -10 -12 -12 -13 -14 -15 -16 -17
-6 -6 -7 -7 -6 -5 -7 -9 -14 -16 -16 -15 -15 -14 -13 -13 -14 -14 -14 -14 -14 -14 -15 -14 -13 -12 -12 -10 -10 -11 -11 -12 -13 -14 -15 -15 -16 -17
-8 -6 -4 -3 -5 -11 -14 -15 -16 -16 -15 -15 -15 -15 -14 -14 -14 -13 -13 -13 -13 -13 -13 -13 -12 -11 -10 -9 -11 -11 -11 -12 -13 -14 -15 -15 -14 -15
-7 -9 -11 -13 -14 -14 -14 -14 -14 -14 -14 -14 -13 -13 -12 -13 -13 -8 -7 -10 -9 -10 -11 -10 -9 -9 -10 -10 -10 -11 -12 -13 -14 -14 -14 -14 -14 -15
-14 -14 -14 -14 -14 -15 -15 -15 -15 -14 -14 -14 -13 -13 -12 -11 -10 -7 -8 -8 -9 -9 -9 -10 -9 -10 -10 -11 -11 -13 -14 -15 -14 -13 -13 -12 -13 -13
-14 -14 -13 -14 -15 -13 -8 -7 -7 -8 -9 -10 -10 -10 -10 -10 -11 -11 -10 -10 -10 -10 -11 -11 -11 -11 -12 -13 -13 -14 -14 -15 -15 -14 -13 -13 -12 -12
-13 -13 -14 -12 -9 -8 -10 -13 -14 -15 -15 -16 -16 -16 -16 -15 -14 -13 -12 -12 -12 -12 -13 -13 -14 -14 -13 -13 -13 -13 -13 -14 -13 -14 -15 -14 -13 -13

GFSNE_850_dewp_222.txt.gz
Dewpoint
4 4 4 4 4 3 6 5 6 6 6 5 5 4 4 3 3 7 6 5 7 7 7 7 6 5 4 4 4 3 3 1 -1 -9 -8 -6 -3 -4
3 3 3 4 3 3 3 5 5 6 6 6 5 4 4 2 5 6 6 5 6 6 6 6 6 5 4 4 3 3 2 -1 -7 -6 -7 -10 -5 -2
3 3 3 4 3 3 3 4 4 5 6 6 6 5 4 4 5 4 4 4 5 5 5 5 5 4 3 3 2 1 -2 -5 -5 -6 -8 -13 -18 -3
3 3 3 3 3 3 3 3 3 4 5 5 6 5 5 5 4 4 4 5 5 4 4 4 4 3 2 2 1 -2 -4 -5 -6 -7 -12 -21 -23 -13
4 4 3 3 3 2 3 3 3 4 4 5 5 5 5 5 4 4 4 4 3 3 3 3 3 2 2 1 0 -1 -4 -5 -6 -12 -22 -23 -23 -23
4 3 3 3 3 3 4 4 4 4 5 5 5 5 4 4 4 4 3 3 2 2 2 2 2 1 1 0 -1 -3 -6 -13 -20 -22 -22 -23 -23 -24
4 3 3 3 3 3 4 3 4 4 4 3 3 4 4 4 4 3 3 2 1 1 1 -0 0 -0 -0 -1 -3 -11 -20 -21 -21 -22 -23 -23 -23 -23
4 4 4 4 4 4 4 4 4 4 3 4 4 4 3 3 4 3 2 1 -1 -0 -1 -1 -1 -3 -5 -11 -20 -21 -21 -22 -22 -22 -22 -23 -23 -24
3 3 3 3 4 3 3 3 3 4 4 4 3 3 3 3 3 2 1 0 -0 -0 -1 -2 -2 -11 -20 -22 -22 -20 -20 -22 -23 -23 -23 -23 -23 -22
3 2 3 2 2 2 3 3 3 3 3 3 2 2 1 1 1 0 -0 -1 -1 -1 -11 -21 -21 -19 -19 -19 -18 -16 -15 -17 -20 -20 -18 -19 -18 -18
2 2 2 1 1 1 2 1 1 1 0 0 0 1 0 -0 -0 -0 -1 -2 -6 -15 -20 -17 -17 -16 -13 -13 -13 -13 -16 -13 -13 -13 -13 -14 -14 -14
1 -0 -4 -4 -1 0 0 0 0 0 -0 -1 -1 -2 -2 -1 -3 -7 -8 -15 -18 -16 -16 -15 -14 -14 -14 -14 -14 -13 -13 -12 -13 -13 -14 -15 -15 -14
-9 -16 -17 -14 -13 -9 -6 -7 -10 -10 -13 -16 -16 -16 -17 -17 -16 -16 -16 -17 -15 -13 -14 -14 -14 -14 -14 -14 -13 -13 -13 -13 -12 -11 -12 -13 -14 -14
-18 -19 -19 -19 -18 -18 -17 -17 -16 -13 -10 -9 -10 -12 -13 -14 -15 -15 -14 -14 -14 -13 -13 -13 -13 -12 -12 -11 -12 -13 -13 -12 -11 -11 -11 -11 -12 -12
-18 -15 -11 -10 -10 -9 -8 -8 -8 -10 -12 -12 -12 -12 -13 -14 -14 -14 -14 -13 -13 -13 -13 -13 -14 -13 -12 -11 -11 -13 -12 -11 -10 -11 -11 -12 -13 -14
-9 -9 -11 -9 -6 -6 -7 -10 -11 -12 -12 -12 -13 -14 -14 -14 -13 -13 -13 -13 -13 -13 -14 -14 -15 -15 -15 -15 -13 -14 -12 -10 -11 -11 -11 -12 -13 -14
-7 -10 -8 -7 -7 -7 -8 -10 -13 -15 -15 -15 -15 -15 -14 -14 -13 -14 -14 -14 -15 -15 -15 -15 -14 -14 -14 -14 -14 -14 -12 -11 -11 -11 -11 -12 -14 -16
-7 -7 -7 -6 -5 -6 -10 -14 -15 -16 -16 -16 -16 -15 -15 -15 -14 -14 -14 -14 -14 -13 -13 -13 -13 -12 -12 -13 -12 -10 -10 -11 -11 -12 -12 -12 -15 -16
-7 -5 -4 -5 -9 -13 -14 -14 -14 -14 -14 -14 -14 -13 -13 -13 -12 -12 -11 -10 -8 -8 -9 -9 -9 -9 -9 -10 -9 -10 -11 -11 -12 -14 -14 -15 -14 -16
-9 -11 -13 -13 -13 -14 -15 -15 -15 -15 -15 -14 -14 -14 -13 -12 -12 -11 -9 -8 -8 -8 -9 -9 -9 -10 -10 -11 -11 -11 -11 -13 -14 -15 -14 -14 -14 -15
-15 -14 -14 -14 -14 -15 -13 -9 -7 -7 -8 -8 -8 -9 -9 -9 -10 -10 -10 -10 -10 -10 -10 -11 -11 -11 -11 -12 -12 -14 -15 -14 -14 -14 -13 -13 -13 -14
-14 -13 -14 -14 -13 -9 -8 -10 -13 -14 -15 -15 -16 -16 -16 -15 -15 -14 -12 -11 -11 -12 -12 -13 -14 -14 -14 -13 -13 -13 -14 -15 -14 -14 -13 -13 -12 -11
-14 -14 -12 -9 -10 -14 -16 -16 -16 -16 -16 -16 -16 -16 -16 -15 -15 -14 -14 -13 -14 -13 -13 -13 -13 -13 -13 -13 -12 -13 -13 -14 -13 -13 -14 -13 -13 -13

GFSNE_850_dewp_225.txt.gz
Dewpoint
4 3 4 4 5 4 4 3 5 6 5 6 5 5 5 4 3 3 3 3 6 5 8 5 5 6 7 6 6 6 6 5 4 4 1 -2 -9 -6
3 3 3 3 4 4 4 4 3 4 5 5 5 6 4 4 4 3 3 6 6 6 6 5 6 6 6 6 6 5 5 4 4 2 0 -6 -6 -4
2 2 3 4 3 4 4 3 3 2 3 5 5 5 5 4 4 4 6 6 6 4 6 6 7 5 5 5 5 4 4 4 3 1 -4 -6 -7 -8
3 3 3 3 4 4 3 3 3 3 3 3 3 4 5 5 5 4 6 5 4 5 5 5 5 5 5 5 4 3 3 2 2 -3 -5 -6 -7 -10
3 3 3 4 4 3 3 3 3 3 3 4 4 4 4 5 5 5 4 4 4 4 4 4 4 4 4 3 3 2 2 2 1 -0 -3 -6 -10 -19
3 4 4 3 3 3 3 3 4 4 4 4 4 4 5 4 5 4 4 4 4 4 3 4 3 3 3 3 2 1 1 0 0 -1 -6 -17 -21 -22
3 4 3 3 3 3 3 3 3 4 3 4 4 3 3 3 3 4 4 3 3 3 2 2 2 2 1 1 0 -0 -1 -5 -13 -20 -22 -22 -23 -23
3 3 3 4 4 4 4 4 3 4 4 3 4 4 3 3 3 3 3 2 1 1 1 0 0 -0 -0 -1 -2 -9 -18 -21 -21 -22 -22 -22 -22 -22
3 3 2 2 3 3 3 3 3 3 3 3 3 3 3 3 3 3 2 1 0 -0 -1 -1 -1 -1 -2 -5 -16 -21 -21 -20 -21 -21 -21 -21 -22 -22
2 2 1 1 2 2 2 2 2 2 2 3 2 2 2 2 1 1 0 -1 -1 -1 -1 -3 -9 -14 -20 -20 -20 -19 -16 -14 -16 -16 -15 -14 -14 -14
1 1 0 -0 0 1 1 1 1 0 0 1 0 0 0 -0 -0 -0 -1 -1 -1 -4 -17 -19 -18 -17 -16 -13 -13 -13 -14 -13 -13 -12 -13 -13 -13 -13
-4 -8 -6 -4 -1 -1 -0 -0 -1 -1 -0 -0 -1 -1 -0 -1 -1 -2 -3 -7 -18 -18 -18 -16 -15 -14 -14 -14 -14 -15 -14 -13 -13 -13 -12 -12 -12 -13
-17 -18 -17 -16 -12 -11 -14 -15 -16 -14 -13 -12 -11 -12 -13 -15 -16 -15 -15 -17 -15 -13 -15 -14 -14 -14 -14 -14 -14 -13 -13 -13 -13 -12 -12 -12 -11 -11
-19 -18 -16 -15 -14 -13 -9 -8 -8 -9 -10 -10 -11 -12 -13 -14 -15 -15 -16 -15 -14 -13 -13 -13 -13 -13 -12 -12 -12 -14 -13 -14 -14 -13 -12 -11 -11 -11
-11 -10 -10 -9 -7 -6 -7 -9 -11 -12 -11 -11 -11 -13 -13 -13 -14 -14 -14 -13 -13 -13 -13 -13 -14 -14 -15 -15 -14 -16 -16 -17 -16 -14 -12 -11 -12 -13
-10 -10 -7 -6 -7 -8 -10 -11 -12 -13 -13 -14 -14 -14 -14 -14 -14 -14 -13 -13 -14 -15 -15 -15 -15 -15 -15 -15 -14 -15 -15 -14 -14 -14 -11 -11 -12 -12
-10 -8 -6 -6 -6 -6 -9 -12 -14 -15 -16 -16 -16 -15 -15 -15 -14 -14 -14 -14 -14 -14 -14 -13 -12 -12 -13 -13 -13 -12 -12 -12 -11 -10 -11 -12 -12 -14
-7 -6 -4 -4 -7 -11 -14 -14 -14 -14 -14 -14 -14 -14 -14 -14 -13 -13 -13 -12 -12 -11 -9 -8 -8 -9 -9 -9 -10 -10 -11 -11 -11 -11 -11 -11 -13 -16
-7 -5 -7 -9 -12 -13 -13 -14 -15 -15 -15 -15 -14 -14 -14 -13 -13 -12 -12 -11 -10 -9 -8 -9 -9 -10 -10 -10 -11 -10 -10 -10 -11 -13 -13 -14 -14 -16
-9 -12 -13 -14 -14 -14 -14 -13 -8 -7 -7 -8 -8 -9 -9 -10 -10 -11 -11 -10 -10 -10 -10 -10 -10 -10 -11 -11 -11 -15 -14 -14 -14 -14 -15 -14 -14 -15
-15 -14 -14 -13 -14 -14 -10 -8 -10 -13 -15 -16 -16 -16 -16 -16 -15 -14 -13 -11 -11 -12 -12 -12 -12 -12 -13 -14 -13 -15 -15 -14 -13 -13 -13 -12 -13 -14
-14 -13 -14 -14 -11 -10 -12 -16 -17 -16 -16 -16 -16 -16 -16 -16 -16 -15 -14 -14 -14 -13 -13 -13 -13 -13 -14 -13 -13 -14 -14 -15 -14 -13 -13 -12 -11 -11
-14 -13 -10 -10 -14 -16 -16 -16 -16 -17 -17 -17 -16 -16 -15 -14 -14 -13 -13 -13 -13 -13 -13 -13 -13 -13 -13 -12 -11 -11 -13 -14 -13 -13 -14 -13 -12 -12